Regional Weather Roundup
Issued by NWS Binghamton, NY

Home | Current Version | Previous Version | Text Only | Print | Product List | Glossary On
Versions: 1 2 3 4 5 6 7 8 9 10 11 12 13 14 15 16 17 18 19 20 21 22 23 24 25 26 27 28 29 30 31 32 33 34 35 36 37 38 39 40 41 42 43 44 45 46 47 48 49 50
000
ASUS41 KBGM 310810
RWRBGM
RWRBGM
BINGHAMTON REGIONAL WEATHER ROUNDUP
NATIONAL WEATHER SERVICE BINGHAMTON NY
400 AM EDT SUN AUG 31 2014

Note: "fair" indicates few or no clouds below 12,000 feet with no
significant weather and/or obstructions to visibility.

* = Station(s) that does not report precipitation, such as rain,
snow, etc, also no thunder or fog.

!NYZ009-015>018-022>025-036-037-044>046-055>057-062-310900
...CENTRAL NEW YORK...

CITY           SKY/WX    TMP DP  RH WIND       PRES   REMARKS
BINGHAMTON     MOCLDY    68  64  87 S9        30.09F
DANSVILLE      LGT RAIN  72  68  87 S5        30.03S
ELMIRA         CLOUDY    73  68  83 SW6       30.04F
ITHACA         CLOUDY    71  66  84 S10       30.06S
HAMILTON       CLOUDY    72  64  78 S9        30.06F
MONTICELLO     CLOUDY    66  63  88 CALM      30.15F
NORWICH        CLOUDY    70  63  78 S6        30.08F
PENN YAN       CLOUDY    73  67  81 SW8       30.03R
ROME           CLOUDY    71  65  81 SE8       30.02F
SIDNEY         CLOUDY    72  66  83 SW5       30.08F
SYRACUSE       CLOUDY    76  65  68 S13       29.98F
$$

!PAZ038>040-043-044-047-048-072-310900
...NORTHEAST PENNSYLVANIA...

CITY           SKY/WX    TMP DP  RH WIND       PRES   REMARKS
HAZLETON       CLOUDY    68  64  88 SE5       30.17F FOG
SCRANTON       CLOUDY    72  65  78 SW7       30.10F
TOWANDA*       PTCLDY    72  68  88 CALM      30.07F
$$
&&
KEY
WCI = WIND CHILL INDEX
VSB = VISIBILITY
HX  = HEAT INDEX
$$


USA.gov is the U.S. government's official web portal to all federal, state and local government web resources and services.